Regional Weather Roundup
Issued by NWS

Home | Current Version | Previous Version | Graphics & Text | Print | Product List | Glossary On
Versions: 1 2 3 4 5 6 7 8 9 10 11 12 13 14 15 16 17 18 19 20 21 22 23 24 25 26 27
000
ASUS45 KBOI 051410
RWRID

IDAHO REGIONAL WEATHER ROUNDUP
NATIONAL WEATHER SERVICE BOISE ID
800 AM MDT THU MAY 05 2016

NOTE: "FAIR" INDICATES FEW OR NO CLOUDS BELOW 12000 FEET
WITH NO SIGNIFICANT WEATHER AND/OR OBSTRUCTIONS TO VISIBILITY

IDZ012-014-051500-
SOUTHWEST IDAHO


CITY           SKY/WX    TMP DP  RH WIND       PRES   REMARKS
BOISE          PTSUNNY   57  44  62 NW6       29.88S
CALDWELL       PTSUNNY   55  46  71 W7        29.88F
MOUNTAIN HOME  PTSUNNY   57  43  59 NW12      29.87S
$$

IDZ016-017-051500-
SOUTHCENTRAL IDAHO


CITY           SKY/WX    TMP DP  RH WIND       PRES   REMARKS
BURLEY         PTSUNNY   51  43  74 CALM      29.91R
JEROME         MOSUNNY   53  41  63 SE6       29.93R
TWIN FALLS     PTSUNNY   54  41  61 SW9       29.92R
$$

IDZ019>023-051500-
SOUTHEAST IDAHO


CITY           SKY/WX    TMP DP  RH WIND       PRES   REMARKS
IDAHO FALLS    CLOUDY    49  39  68 N7        29.99R
POCATELLO      CLOUDY    49  43  80 VRB3      29.96R
REXBURG        CLOUDY    46  34  62 E5        30.01R
$$

IDZ006-010-011-018-031-032-051500-
CENTRAL IDAHO MOUNTAINS


CITY           SKY/WX    TMP DP  RH WIND       PRES   REMARKS
MCCALL         MOSUNNY   49  40  71 N7        29.95F
HAILEY         MOSUNNY   46  36  66 NW14      30.01S
STANLEY          N/A     38  31  76 E5        30.05S WCI  34
SALMON         CLOUDY    46  36  66 S5        29.99R
CHALLIS        SUNNY     47  32  56 CALM      30.01R
$$

IDZ002-004-006-007-026-051500-
NORTHERN IDAHO


CITY           SKY/WX    TMP DP  RH WIND       PRES   REMARKS
LEWISTON       PTSUNNY   58  51  78 CALM      29.93R
LOWELL           N/A     54  50  86 CALM      29.95S
COEUR D`ALENE  PTSUNNY   54  50  87 S6        29.94R
MULLAN PASS    CLOUDY    46  40  79 VRB5      30.01S
$$




USA.gov is the U.S. government's official web portal to all federal, state and local government web resources and services.